Weather reports worldwide

Advertisment
Blencathra, United Kingdom (99143): temperature & dewpoint: 18.05.2017 20:00:00 - 24.05.2017 20:00:00 (BST)Blencathra, United Kingdom (99143): temperature 5cm: 18.05.2017 20:00:00 - 24.05.2017 20:00:00 (BST)Blencathra, United Kingdom (99143): visibility: 18.05.2017 20:00:00 - 24.05.2017 20:00:00 (BST)Blencathra, United Kingdom (99143): precipitation: 18.05.2017 20:00:00 - 24.05.2017 20:00:00 (BST)
Date & Time tt [°C] td [°C] tt 5cm [°C] vv [km] rr [mm]
24.05.2017 20:00:00 17,0 12,9 - - 0,0
24.05.2017 19:00:00 17,4 13,1 - - 0,0
24.05.2017 18:00:00 17,3 12,8 - - 0,0
24.05.2017 17:00:00 18,3 13,8 - - 0,0
24.05.2017 16:00:00 18,9 14,5 - - 0,0
24.05.2017 15:00:00 18,4 13,0 - - 0,0
24.05.2017 14:00:00 19,2 13,5 - - 0,0
24.05.2017 13:00:00 19,8 14,9 - - 0,0
24.05.2017 12:00:00 17,5 14,0 - - 0,0
24.05.2017 11:00:00 17,5 13,7 - - 0,0
24.05.2017 10:00:00 16,4 13,3 16,4 0,8 0,0
24.05.2017 09:00:00 15,5 12,9 - - 0,0
24.05.2017 08:00:00 14,2 12,0 - - 0,0
24.05.2017 07:00:00 13,7 11,8 - - 0,0
24.05.2017 06:00:00 13,7 12,1 - - 0,0
24.05.2017 05:00:00 14,0 12,3 - - 0,0
24.05.2017 04:00:00 14,3 12,5 - - 0,0
24.05.2017 03:00:00 14,4 12,8 - - 0,0
24.05.2017 02:00:00 14,6 13,2 - - 0,2
24.05.2017 01:00:00 14,6 12,1 - - 0,0
24.05.2017 00:00:00 14,8 11,4 - - 0,0
23.05.2017 23:00:00 14,4 10,9 - - 0,0
23.05.2017 22:00:00 14,0 10,3 - - 0,0
23.05.2017 21:00:00 14,3 9,9 - - 0,0
23.05.2017 20:00:00 14,7 8,5 - - 0,0
23.05.2017 19:00:00 14,7 6,8 - - 0,0
23.05.2017 18:00:00 15,1 6,1 - - 0,0
23.05.2017 17:00:00 15,4 5,3 - - 0,0
23.05.2017 16:00:00 16,3 7,1 - - 0,0
23.05.2017 15:00:00 16,0 7,6 - - 0,0
23.05.2017 14:00:00 16,0 8,0 - - 0,0
23.05.2017 13:00:00 15,4 8,4 - - 0,0
23.05.2017 12:00:00 14,0 7,1 - - 0,0
23.05.2017 11:00:00 13,5 6,7 - - 0,0
23.05.2017 10:00:00 12,7 6,9 13,6 23 0,0
23.05.2017 09:00:00 12,4 7,0 - - 0,0
23.05.2017 08:00:00 11,0 7,7 - - 0,0
23.05.2017 07:00:00 10,1 7,2 - - 0,0
23.05.2017 06:00:00 10,2 7,8 - - 0,0
23.05.2017 05:00:00 9,8 7,3 - - 0,0
23.05.2017 04:00:00 10,2 7,7 - - 0,0
23.05.2017 03:00:00 10,2 8,7 - - 0,0
23.05.2017 02:00:00 10,9 8,9 - - 0,0
23.05.2017 01:00:00 11,5 9,5 - - 0,0
23.05.2017 00:00:00 11,6 10,1 - - 0,0
22.05.2017 23:00:00 12,2 10,0 - - 0,0
22.05.2017 22:00:00 12,0 9,9 - - 0,0
22.05.2017 21:00:00 12,2 10,1 - - 0,0
22.05.2017 20:00:00 13,1 9,9 - - 0,0
22.05.2017 19:00:00 13,8 9,3 - - 0,0
22.05.2017 18:00:00 14,6 10,7 - - 0,0
22.05.2017 17:00:00 16,0 10,5 - - 0,0
22.05.2017 16:00:00 17,7 10,8 - - 0,0
22.05.2017 15:00:00 19,7 12,3 - - 0,0
22.05.2017 14:00:00 18,0 13,2 - - 0,0
22.05.2017 13:00:00 16,3 11,6 - - 0,0
22.05.2017 12:00:00 15,0 11,0 - - 0,0
22.05.2017 11:00:00 14,1 9,9 - - 0,0
22.05.2017 10:00:00 13,4 9,1 - 10 0,0
22.05.2017 09:00:00 12,6 8,0 - - 0,0
22.05.2017 08:00:00 12,6 7,6 - - 0,0
22.05.2017 07:00:00 11,8 7,3 - - 0,0
22.05.2017 06:00:00 11,0 7,0 - - 0,0
22.05.2017 05:00:00 11,2 6,8 - - 0,0
22.05.2017 04:00:00 11,4 6,8 - - 0,0
22.05.2017 03:00:00 11,7 6,7 - - 0,0
22.05.2017 02:00:00 12,1 6,8 - - 0,0
22.05.2017 01:00:00 11,9 6,7 - - 0,0
22.05.2017 00:00:00 12,6 7,1 - - 0,0
21.05.2017 23:00:00 12,4 6,9 - - 0,0
21.05.2017 22:00:00 13,1 7,2 - - 0,0
21.05.2017 21:00:00 13,3 7,6 - - 0,0
21.05.2017 20:00:00 13,8 7,8 - - 0,0
21.05.2017 19:00:00 14,1 7,9 - - 0,0
21.05.2017 18:00:00 14,2 7,6 - - 0,0
21.05.2017 17:00:00 14,5 7,8 - - 0,0
21.05.2017 16:00:00 14,0 7,4 - - 0,0
21.05.2017 15:00:00 13,5 6,9 - - 0,0
21.05.2017 14:00:00 12,3 8,6 - - 0,0
21.05.2017 13:00:00 11,3 7,7 - - 0,0
21.05.2017 12:00:00 11,7 8,5 - - 0,0
21.05.2017 11:00:00 10,8 8,6 - - 0,2
21.05.2017 10:00:00 9,5 8,2 10,4 - 0,2
21.05.2017 09:00:00 10,2 6,5 - - 0,0
21.05.2017 08:00:00 10,0 7,7 - - 0,0
21.05.2017 07:00:00 9,6 7,3 - - 0,0
21.05.2017 06:00:00 9,1 7,4 - - 0,0
21.05.2017 05:00:00 8,8 7,2 - - 0,2
21.05.2017 04:00:00 8,6 7,2 - - 0,0
21.05.2017 03:00:00 8,5 7,2 - - 0,4
21.05.2017 02:00:00 8,9 7,0 - - 0,2
21.05.2017 01:00:00 8,9 6,7 - - 0,0
21.05.2017 00:00:00 8,5 6,7 - - 0,4
20.05.2017 23:00:00 8,7 6,0 - - 0,0
20.05.2017 22:00:00 9,2 5,5 - - 0,0
20.05.2017 21:00:00 9,6 5,7 - - 0,0
20.05.2017 20:00:00 10,2 5,0 - - 0,0
20.05.2017 19:00:00 10,2 5,4 - - 0,0
20.05.2017 18:00:00 10,8 4,8 - - 0,0
20.05.2017 17:00:00 10,8 6,2 - - 0,0
20.05.2017 16:00:00 11,1 6,8 - - 0,0
20.05.2017 15:00:00 10,0 7,2 - - 0,0
20.05.2017 14:00:00 8,8 7,1 - - 0,0
20.05.2017 13:00:00 9,1 6,7 - - 0,6
20.05.2017 12:00:00 10,2 7,8 - - 0,2
20.05.2017 11:00:00 10,2 7,4 - - 0,2
20.05.2017 10:00:00 10,4 6,8 11,4 3,5 0,0
20.05.2017 09:00:00 10,1 6,6 - - 0,0
20.05.2017 08:00:00 10,0 6,2 - - 0,0
20.05.2017 07:00:00 8,1 5,9 - - 0,0
20.05.2017 06:00:00 7,6 5,0 - - 0,0
20.05.2017 05:00:00 7,5 4,0 - - 0,0
20.05.2017 04:00:00 8,1 4,9 - - 0,0
20.05.2017 03:00:00 8,1 4,7 - - 0,0
20.05.2017 02:00:00 8,4 5,1 - - 0,0
20.05.2017 01:00:00 7,9 5,9 - - 0,0
20.05.2017 00:00:00 8,7 4,9 - - 0,0
19.05.2017 23:00:00 8,9 3,7 - - 0,0
19.05.2017 22:00:00 9,5 3,9 - - 0,0
19.05.2017 21:00:00 9,9 4,4 - - 0,0
19.05.2017 20:00:00 10,4 5,0 - - 0,0
19.05.2017 19:00:00 10,9 5,9 - - 0,0
19.05.2017 18:00:00 11,2 6,5 - - 0,0
19.05.2017 17:00:00 12,0 6,6 - - 0,0
19.05.2017 16:00:00 12,0 6,6 - - 0,0
19.05.2017 15:00:00 13,0 5,5 - - 0,0
19.05.2017 14:00:00 12,8 6,3 - - 0,0
19.05.2017 13:00:00 12,2 5,2 - - 0,0
19.05.2017 12:00:00 11,7 4,2 - - 0,0
19.05.2017 11:00:00 11,3 5,0 - - 0,0
19.05.2017 10:00:00 10,8 6,1 10,9 0,4 0,0
19.05.2017 09:00:00 9,6 6,7 - - 0,0
19.05.2017 08:00:00 7,1 5,5 - - 0,0
19.05.2017 07:00:00 5,9 3,8 - - 0,0
19.05.2017 06:00:00 5,8 2,8 - - 0,0
19.05.2017 05:00:00 5,6 2,2 - - 0,0
19.05.2017 04:00:00 5,9 2,2 - - 0,0
19.05.2017 03:00:00 6,2 2,5 - - 0,0
19.05.2017 02:00:00 6,9 2,9 - - 0,0
19.05.2017 01:00:00 7,8 3,6 - - 0,0
19.05.2017 00:00:00 8,2 3,6 - - 0,0
18.05.2017 23:00:00 8,6 4,1 - - 0,0
18.05.2017 22:00:00 8,9 4,1 - - 0,0
18.05.2017 21:00:00 10,1 2,9 - - 0,0
18.05.2017 20:00:00 11,3 3,1 - - 0,0

tt = temperature
td = dewpoint
tt 5cm = temperature 5cm
vv = visibility
rr = precipitation

Next stations